This is the latest recevied weather packets stored in our database for station/object S56WDN-10. If no packets are shown the sender has not sent any weather packets the latest 10 day(s).
| Time | Temp. | Humidity | Pressure | Rain* | Wind** | Luminosity | Snow |
|---|---|---|---|---|---|---|---|
| 1777561032 | 17.78° C | 33% | 1024.7 hPa | 0 mm | - | - | - |
| 1777560732 | 17.22° C | 33% | 1024.8 hPa | 0 mm | - | - | - |
| 1777560432 | 17.22° C | 33% | 1024.8 hPa | 0 mm | - | - | - |
| 1777560132 | 17.22° C | 33% | 1024.7 hPa | 0 mm | - | - | - |
| 1777559832 | 17.78° C | 33% | 1024.8 hPa | 0 mm | - | - | - |
| 1777559532 | 17.78° C | 33% | 1024.8 hPa | 0 mm | - | - | - |
| 1777559232 | 17.78° C | 34% | 1024.9 hPa | 0 mm | - | - | - |
| 1777558932 | 17.78° C | 34% | 1025 hPa | 0 mm | - | - | - |
| 1777558632 | 17.78° C | 35% | 1025 hPa | 0 mm | - | - | - |
| 1777558332 | 17.78° C | 35% | 1025 hPa | 0 mm | - | - | - |
| 1777558032 | 17.22° C | 35% | 1025.1 hPa | 0 mm | - | - | - |
| 1777557732 | 17.22° C | 35% | 1024.9 hPa | 0 mm | - | - | - |
| 1777557432 | 17.22° C | 36% | 1025 hPa | 0 mm | - | - | - |
| 1777557132 | 17.22° C | 35% | 1025.1 hPa | 0 mm | - | - | - |
| 1777556833 | 17.22° C | 34% | 1025.1 hPa | 0 mm | - | - | - |
| 1777556532 | 17.22° C | 34% | 1025.1 hPa | 0 mm | - | - | - |
| 1777556232 | 17.22° C | 35% | 1025.2 hPa | 0 mm | - | - | - |
| 1777555932 | 17.22° C | 34% | 1025.2 hPa | 0 mm | - | - | - |
| 1777555633 | 17.22° C | 37% | 1025.4 hPa | 0 mm | - | - | - |
| 1777555332 | 17.22° C | 35% | 1025.4 hPa | 0 mm | - | - | - |
| 1777555032 | 16.67° C | 37% | 1025.4 hPa | 0 mm | - | - | - |
| 1777554732 | 16.67° C | 37% | 1025.4 hPa | 0 mm | - | - | - |
| 1777554432 | 16.67° C | 34% | 1025.4 hPa | 0 mm | - | - | - |
| 1777554132 | 16.67° C | 36% | 1025.5 hPa | 0 mm | - | - | - |
| 1777553833 | 16.67° C | 36% | 1025.5 hPa | 0 mm | - | - | - |
* Rain latest hour (hover to see other rain measurements)
** Current wind speed in m/s (hover to see current wind gust speed)